Latest Coastal Weather Observations for Willis Island

IDQ60701

Issued at 4:45 am EST Sunday 24 August 2014 (issued every 10 minutes, with the page automatically refreshed every 10 minutes)

About coastal observations | Map of coastal stations | Coastal observations for QLD | Marine services | Other Formats
Station Details ID: 200283 Name: WILLIS ISLAND Lat: -16.29 Lon: 149.97 Height: 9.29 m
Data from the previous 72 hours. | See also: Recent months at Willis Island
Date/Time
EST
Temp

°C
Wind Pressure Rain
since 9am
mm
Weather Cloud Vis
km
Sea
Height
m
Swell
Dir
 
Speed
knots
Gust
knots
hPa Trend Height
m
Period
s
Dir
24/04:30am 23.0 SSE 20 23 1015.6 - 0.0 - - - - - - -
24/04:00am 22.9 SSE 21 25 1015.4 - 0.0 - - - - - - -
24/03:30am 22.9 SSE 21 25 1015.2 - 0.0 - - - - - - -
24/03:00am 22.9 SSE 22 25 1015.3 - 0.0 - - - - - - -
24/02:30am 23.0 SSE 22 25 1015.6 - 0.0 - - - - - - -
24/02:00am 23.0 SSE 22 25 1015.8 - 0.0 - - - - - - -
24/01:30am 23.1 SSE 21 25 1016.3 - 0.0 - - - - - - -
24/01:00am 23.2 SSE 22 25 1016.6 - 0.0 - - - - - - -
24/12:30am 23.1 SSE 23 26 1016.8 - 0.0 - - - - - - -
24/12:00am 23.2 SSE 21 25 1017.1 - 0.0 - - - - - - -
 
Date/Time
EST
Temp

°C
Wind Pressure Rain
since 9am
mm
Weather Cloud Vis
km
Sea
Height
m
Swell
Dir
 
Speed
knots
Gust
knots
hPa Trend Height
m
Period
s
Dir
23/11:30pm 23.3 SSE 21 25 1017.1 - 0.0 - - - - - - -
23/11:00pm 23.4 SSE 21 26 1017.2 - 0.0 - - - - - - -
23/10:30pm 23.4 SSE 22 25 1017.4 - 0.0 - - - - - - -
23/10:00pm 23.5 SSE 22 27 1017.5 - 0.0 - - - - - - -
23/09:30pm 23.6 SSE 22 25 1017.7 - 0.0 - - - - - - -
23/09:00pm 23.6 SSE 22 25 1017.6 R 0.0 Distant precip. Mostly cloudy 30 2 - - -
23/08:30pm 23.6 SSE 22 25 1017.4 - 0.0 - - - - - - -
23/08:00pm 23.6 SSE 22 26 1017.1 - 0.0 - - - - - - -
23/07:30pm 23.6 SSE 21 26 1016.9 - 0.0 - - - - - - -
23/07:00pm 23.6 SSE 22 25 1016.5 - 0.0 - - - - - - -
23/06:30pm 23.7 SSE 22 25 1016.1 - 0.0 - - - - - - -
23/06:00pm 23.8 SSE 22 26 1015.5 S 0.0 Fine Mostly cloudy 30 2 0.5 8 SE
23/05:30pm 23.8 SSE 22 26 1015.3 - 0.0 - - - - - - -
23/05:00pm 24.0 SSE 21 24 1015.1 - 0.0 - - - - - - -
23/04:30pm 24.2 SSE 22 25 1014.9 - 0.0 - - - - - - -
23/04:00pm 24.4 SSE 21 24 1014.9 - 0.0 - - - - - - -
23/03:30pm 24.8 SSE 20 23 1014.7 - 0.0 - - - - - - -
23/03:00pm 25.7 SE 20 23 1014.7 R 0.0 Fine Mostly cloudy 30 2 0.5 8 SE
23/02:30pm 25.5 SSE 20 23 1015.0 - 0.0 - - - - - - -
23/02:00pm 25.5 SSE 20 22 1015.2 - 0.0 - - - - - - -
23/01:30pm 26.0 SE 19 22 1015.4 - 0.0 - - - - - - -
23/01:00pm 25.6 SE 19 22 1015.7 - 0.0 - - - - - - -
23/12:30pm 25.7 SE 18 22 1015.9 - 0.0 - - - - - - -
23/12:00pm 25.5 SSE 20 23 1016.2 F 0.0 Fine Mostly cloudy 30 2 0.5 8 SE
23/11:30am 25.5 SE 20 23 1016.6 - 0.0 - - - - - - -
23/11:00am 25.9 SE 18 22 1017.0 - 0.0 - - - - - - -
23/10:30am 25.8 SE 19 22 1017.3 - 0.0 - - - - - - -
23/10:00am 24.8 SE 19 22 1017.6 - 0.0 - - - - - - -
23/09:30am 24.7 ESE 21 24 1017.5 - 0.0 - - - - - - -
23/09:00am 24.5 SE 21 24 1017.5 R 0.0 Distant precip. Mostly cloudy 25 2 0.5 8 SE
23/08:30am 24.5 SE 20 24 1017.2 - 0.0 - - - - - - -
23/08:00am 24.0 SE 21 24 1016.8 - 0.0 - - - - - - -
23/07:30am 24.0 SE 21 24 1016.6 - 0.0 - - - - - - -
23/07:00am 23.7 SSE 22 25 1016.3 - 0.0 - - - - - - -
23/06:30am 23.5 SSE 20 23 1016.1 - 0.0 - - - - - - -
23/06:00am 23.5 SSE 22 26 1015.6 R 0.0 Distant precip. Mostly cloudy 30 2 0.5 8 SE
23/05:30am 23.4 SSE 22 26 1015.1 - 0.0 - - - - - - -
23/05:00am 23.4 SSE 22 25 1014.8 - 0.0 - - - - - - -
23/04:30am 23.5 SSE 21 25 1014.7 - 0.0 - - - - - - -
23/04:00am 23.5 SSE 22 25 1014.6 - 0.0 - - - - - - -
23/03:30am 23.5 SSE 21 25 1014.5 - 0.0 - - - - - - -
23/03:00am 23.6 SSE 22 26 1014.7 - 0.0 - - - - - - -
23/02:30am 23.4 SSE 23 26 1015.0 - 0.0 - - - - - - -
23/02:00am 23.5 SSE 23 25 1015.2 - 0.0 - - - - - - -
23/01:30am 23.6 SSE 21 25 1015.6 - 0.0 - - - - - - -
23/01:00am 23.7 SSE 21 25 1015.8 - 0.0 - - - - - - -
23/12:30am 23.6 SSE 21 25 1016.1 - 0.0 - - - - - - -
23/12:00am 23.6 SSE 23 27 1016.2 - 0.0 - - - - - - -
 
Date/Time
EST
Temp

°C
Wind Pressure Rain
since 9am
mm
Weather Cloud Vis
km
Sea
Height
m
Swell
Dir
 
Speed
knots
Gust
knots
hPa Trend Height
m
Period
s
Dir
22/11:30pm 23.7 SSE 21 25 1016.4 - 0.0 - - - - - - -
22/11:00pm 23.6 SSE 22 26 1016.4 - 0.0 - - - - - - -
22/10:30pm 23.7 SSE 23 26 1016.6 - 0.0 - - - - - - -
22/10:00pm 23.6 SSE 22 26 1016.4 - 0.0 - - - - - - -
22/09:30pm 23.7 SSE 23 26 1016.4 - 0.0 - - - - - - -
22/09:00pm 23.7 SSE 22 26 1016.4 F 0.0 Distant precip. Cloudy 25 2 - - -
22/08:30pm 23.7 SSE 21 24 1016.4 - 0.0 - - - - - - -
22/08:00pm 23.7 SSE 21 24 1016.3 - 0.0 - - - - - - -
22/07:30pm 23.7 SSE 22 26 1016.1 - 0.0 - - - - - - -
22/07:00pm 23.7 SSE 21 25 1015.8 - 0.0 - - - - - - -
22/06:30pm 23.7 SSE 21 25 1015.6 - 0.0 - - - - - - -
22/06:00pm 23.7 SSE 22 25 1015.1 R 0.0 Distant precip. Cloudy 30 2 0.8 10 SE
22/05:30pm 23.8 SSE 22 26 1014.8 - 0.0 - - - - - - -
22/05:00pm 23.9 SSE 21 25 1014.5 - 0.0 - - - - - - -
22/04:30pm 24.2 SSE 21 24 1014.3 - 0.0 - - - - - - -
22/04:00pm 24.2 SSE 19 22 1014.3 - 0.0 - - - - - - -
22/03:30pm 24.5 SSE 19 22 1014.2 - 0.0 - - - - - - -
22/03:00pm 24.3 SSE 19 22 1014.1 F 0.0 Distant precip. Mostly cloudy 30 2 1.0 8 E
22/02:30pm 24.4 SSE 19 22 1014.2 - 0.0 - - - - - - -
22/02:00pm 24.9 SSE 19 22 1014.5 - 0.0 - - - - - - -
22/01:30pm 24.8 SE 18 21 1015.0 - 0.0 - - - - - - -
22/01:00pm 25.1 SE 17 21 1015.5 - 0.0 - - - - - - -
22/12:30pm 25.1 SSE 18 21 1015.8 - 0.0 - - - - - - -
22/12:00pm 25.5 SSE 19 21 1016.2 F 0.0 Fine Mostly cloudy 30 1 1.5 9 E
22/11:30am 25.0 SSE 18 21 1016.5 - 0.0 - - - - - - -
22/11:00am 24.9 SSE 18 22 1016.8 - 0.0 - - - - - - -
22/10:30am 24.6 SE 19 22 1017.2 - 0.0 - - - - - - -
22/10:00am 24.5 SE 19 22 1017.4 - 0.0 - - - - - - -
22/09:30am 25.0 SE 19 22 1017.6 - 0.0 - - - - - - -
22/09:00am 24.6 SE 20 23 1017.6 R 0.0 Fine Partly cloudy 30 1 1.5 9 E
22/08:30am 24.6 SSE 20 24 1017.2 - 0.0 - - - - - - -
22/08:00am 24.3 SE 19 22 1016.9 - 0.0 - - - - - - -
22/07:30am 23.7 SSE 19 22 1016.7 - 0.0 - - - - - - -
22/07:00am 23.6 SSE 19 22 1016.4 - 0.0 - - - - - - -
22/06:30am 23.5 SE 19 22 1016.2 - 0.0 - - - - - - -
22/06:00am 23.5 SE 18 21 1015.8 R 0.0 Fine Mostly cloudy 30 1 1.0 9 E
22/05:30am 23.4 SE 19 21 1015.5 - 0.0 - - - - - - -
22/05:00am 23.3 SSE 18 21 1015.2 - 0.0 - - - - - - -
22/04:30am 23.4 SSE 18 21 1015.3 - 0.0 - - - - - - -
22/04:00am 23.4 SSE 17 19 1015.2 - 0.0 - - - - - - -
22/03:30am 23.4 SSE 18 21 1015.1 - 0.0 - - - - - - -
22/03:00am 23.3 SSE 18 20 1015.1 - 0.0 - - - - - - -
22/02:30am 23.3 SSE 17 20 1015.3 - 0.0 - - - - - - -
22/02:00am 23.3 SSE 17 19 1015.6 - 0.0 - - - - - - -
22/01:30am 23.3 SE 16 18 1015.7 - 0.0 - - - - - - -
22/01:00am 23.3 SE 15 18 1015.9 - 0.0 - - - - - - -
22/12:30am 23.2 SE 15 18 1016.2 - 0.0 - - - - - - -
22/12:00am 23.2 SE 15 17 1016.4 - 0.0 - - - - - - -
 
Date/Time
EST
Temp

°C
Wind Pressure Rain
since 9am
mm
Weather Cloud Vis
km
Sea
Height
m
Swell
Dir
 
Speed
knots
Gust
knots
hPa Trend Height
m
Period
s
Dir
21/11:30pm 23.2 SE 15 19 1016.5 - 0.0 - - - - - - -
21/11:00pm 23.2 SE 17 19 1016.5 - 0.0 - - - - - - -
21/10:30pm 23.3 SE 17 19 1016.6 - 0.0 - - - - - - -
21/10:00pm 23.3 SE 17 20 1016.6 - 0.0 - - - - - - -
21/09:30pm 23.3 SE 17 21 1016.4 - 0.0 - - - - - - -
21/09:00pm 23.4 SE 18 21 1016.5 S 0.0 Fine Mostly clear 30 2 - - -
21/08:30pm 23.4 SE 17 20 1016.5 - 0.0 - - - - - - -
21/08:00pm 23.5 SE 17 20 1016.3 - 0.0 - - - - - - -
21/07:30pm 23.4 SE 18 21 1015.9 - 0.0 - - - - - - -
21/07:00pm 23.4 SE 17 20 1015.5 - 0.0 - - - - - - -
21/06:30pm 23.5 SE 17 19 1015.4 - 0.0 - - - - - - -
21/06:00pm 23.4 SE 18 20 1015.0 R 0.0 Fine Mostly cloudy 30 1 0.5 8 E
21/05:30pm 23.7 SE 16 19 1014.6 - 0.0 - - - - - - -
21/05:00pm 23.9 SE 16 18 1014.3 - 0.0 - - - - - - -
21/04:30pm 24.0 SE 16 19 1014.1 - 0.0 - - - - - - -
21/04:00pm 24.7 SE 15 19 1013.9 - 0.0 - - - - - - -
21/03:30pm 24.8 SE 15 17 1013.8 - 0.0 - - - - - - -
21/03:00pm 24.9 SE 14 17 1013.7 S 0.0 Fine Mostly cloudy 30 1 0.5 7 E
21/02:30pm 24.9 SE 15 17 1013.7 - 0.0 - - - - - - -
21/02:00pm 25.2 SE 15 18 1013.9 - 0.0 - - - - - - -
21/01:30pm 26.2 SE 15 17 1014.3 - 0.0 - - - - - - -
21/01:00pm 26.0 SE 14 17 1014.7 - 0.0 - - - - - - -
21/12:30pm 25.7 SE 15 18 1015.1 - 0.0 - - - - - - -
21/12:00pm 25.6 SE 15 18 1015.4 F 0.0 Fine Partly cloudy 30 2 0.5 8 E
21/11:30am 25.3 SSE 15 18 1015.8 - 0.0 - - - - - - -
21/11:00am 24.9 SE 14 16 1016.3 - 0.0 - - - - - - -
21/10:30am 24.9 SE 13 17 1016.6 - 0.0 - - - - - - -
21/10:00am 25.5 SE 13 17 1016.8 - 0.0 - - - - - - -
21/09:30am 25.0 SE 12 16 1017.0 - 0.0 - - - - - - -
21/09:00am 24.8 SE 13 15 1016.9 F 0.0 Fine Partly cloudy 30 1 0.5 7 E
21/08:30am 24.4 ESE 12 14 1016.7 - 0.0 - - - - - - -
21/08:00am 24.1 ESE 13 15 1016.5 - 0.0 - - - - - - -
21/07:30am 23.4 ESE 13 16 1016.3 - 0.0 - - - - - - -
21/07:00am 23.0 ESE 13 15 1016.1 - 0.0 - - - - - - -
21/06:30am 22.7 ESE 13 15 1015.8 - 0.0 - - - - - - -
21/06:00am 22.6 ESE 14 17 1015.4 R 0.0 Fine Partly cloudy 30 1 0.5 7 E
21/05:30am 22.4 ESE 13 16 1015.1 - 0.0 - - - - - - -
21/05:00am 22.5 ESE 14 16 1014.6 - 0.0 - - - - - - -

Other Formats:

Comma delimited format used in spreadsheet applications
http://www.bom.gov.au/fwo/IDQ60701/IDQ60701.94299.axf

JavaScript Object Notation format (JSON) in row-major order
http://www.bom.gov.au/fwo/IDQ60701/IDQ60701.94299.json